Portada
METAR-TAF:

METAR-TAF

Aeroports :

Benton Harbor, Michigan, Estats Units d'Amèrica

latitud: 42-07-43N, longitud: 086-25-42W, altitud: 196 m

Observació

L'informe es va fer fa 50 minuts, a les 11:53 UTC
Vent 9 kt del Sud
Temperatura 3°C
Humitat 81%
Pressió 1022 hPa
Visibilitat: 16.1 km
Núvols disperses a una alçada de 3500 ft

METAR: KBEH 161153Z AUTO 19009KT 10SM SCT035 03/00 A3019 RMK AO2 SLP228 70001 T00330000 10078 20033 56005

Hora: 08:43 (12:43 UTC)


TAF: manca

Observacions i pronòstics meteorològics de més de 4000 aeroports (METAR i TAF).

Les estacions disponibles són els punts grocs i vermells al mapa.

Posi el ratolí al punt desitjat per veure el nom de l'estació.

Feu clic per veure les observacions i els pronòstics meteorològics.

Per canviar el mapa: feu clic els botons verds amb una creu de color negre per apropar; al botó verd amb un guió per allunyar la imatge; o en les fletxes verdes per a mapes adjacents.


METAR-TAF: